This is the latest recevied weather packets stored in our database for station/object 4S6DRJ-13. If no packets are shown the sender has not sent any weather packets the latest 10 day(s).
| Time | Temp. | Humidity | Pressure | Rain* | Wind** | Luminosity | Snow |
|---|---|---|---|---|---|---|---|
| 1787819005 | 30° C | 74% | 1008.4 hPa | 0 mm | 0.89 m/s, 288° | 480 W/m² | - |
| 1787818945 | 30° C | 74% | 1008.5 hPa | 0 mm | 1.79 m/s, 331° | 483 W/m² | - |
| 1787818883 | 30° C | 74% | 1008.5 hPa | 0 mm | 1.34 m/s, 230° | 480 W/m² | - |
| 1787818822 | 30° C | 74% | 1008.6 hPa | 0 mm | 1.34 m/s, 245° | 484 W/m² | - |
| 1787818761 | 30° C | 74% | 1008.5 hPa | 0 mm | 1.34 m/s, 197° | 485 W/m² | - |
| 1787818700 | 30° C | 74% | 1008.4 hPa | 0 mm | 1.34 m/s, 295° | 476 W/m² | - |
| 1787818638 | 30° C | 74% | 1008.5 hPa | 0 mm | 0.89 m/s, 229° | 469 W/m² | - |
| 1787818578 | 30° C | 74% | 1008.6 hPa | 0 mm | 0.89 m/s, 293° | 477 W/m² | - |
| 1787818517 | 30° C | 73% | 1008.6 hPa | 0 mm | 1.34 m/s, 217° | 463 W/m² | - |
| 1787818456 | 30° C | 73% | 1008.5 hPa | 0 mm | 0.89 m/s, 37° | 440 W/m² | - |
| 1787818395 | 30° C | 73% | 1008.6 hPa | 0 mm | 0.89 m/s, 208° | 447 W/m² | - |
| 1787818334 | 30° C | 73% | 1008.6 hPa | 0 mm | 1.79 m/s, 263° | 445 W/m² | - |
| 1787818273 | 30° C | 72% | 1008.6 hPa | 0 mm | 2.68 m/s, 254° | 449 W/m² | - |
| 1787818212 | 30° C | 73% | 1008.6 hPa | 0 mm | 1.79 m/s, 232° | 455 W/m² | - |
| 1787818151 | 30° C | 73% | 1008.6 hPa | 0 mm | 2.24 m/s, 266° | 453 W/m² | - |
| 1787818089 | 30° C | 73% | 1008.7 hPa | 0 mm | 1.34 m/s, 288° | 455 W/m² | - |
| 1787818030 | 30.56° C | 73% | 1008.8 hPa | 0 mm | 2.24 m/s, 290° | 446 W/m² | - |
| 1787817968 | 30.56° C | 73% | 1008.8 hPa | 0 mm | 1.79 m/s, 232° | 426 W/m² | - |
| 1787817907 | 30.56° C | 72% | 1008.8 hPa | 0 mm | 1.79 m/s, 220° | 432 W/m² | - |
| 1787817846 | 30.56° C | 72% | 1008.8 hPa | 0 mm | 2.68 m/s, 267° | 484 W/m² | - |
| 1787817784 | 30.56° C | 72% | 1008.7 hPa | 0 mm | 1.34 m/s, 247° | 614 W/m² | - |
| 1787817724 | 30.56° C | 72% | 1008.9 hPa | 0 mm | 2.24 m/s, 256° | 672 W/m² | - |
| 1787817663 | 30.56° C | 73% | 1008.7 hPa | 0 mm | 1.34 m/s, 198° | 498 W/m² | - |
| 1787817602 | 30.56° C | 74% | 1008.8 hPa | 0 mm | 0.45 m/s, 272° | 543 W/m² | - |
| 1787817541 | 30.56° C | 73% | 1008.7 hPa | 0 mm | 0.89 m/s, 301° | 735 W/m² | - |
* Rain latest hour (hover to see other rain measurements)
** Current wind speed in m/s (hover to see current wind gust speed)